LAN010 SCIE-SCEL

Flight info

Callsign LAN010
Flight time 0h 46m
Altitude 34000
Route LODOS4N LODOS UQ808 EROLO EROLO8A
Aircraft A20N/M-SDE2E3FGHIRWXY/LB1

Departure

Time 2026-04-21 16:49
Airport Carriel Sur International Airport (SCIE)

Arrival

Time 2026-04-21 17:35
Airport Comodoro Arturo Merino Benítez International Airport (SCEL)
Time Latitude Longitude Altitude Speed Heading
2026-04-21 16:33 -36.77602 -73.05986 56 ft 0 kts 178°
2026-04-21 16:41 -36.77590 -73.05987 53 ft 3 kts 183°
2026-04-21 16:41 -36.77574 -73.05984 56 ft 2 kts 201°
2026-04-21 16:42 -36.77559 -73.05974 54 ft 2 kts 222°
2026-04-21 16:42 -36.77549 -73.05958 56 ft 2 kts 251°
2026-04-21 16:42 -36.77546 -73.05937 55 ft 2 kts 269°
2026-04-21 16:42 -36.77547 -73.05917 55 ft 2 kts 277°
2026-04-21 16:43 -36.77549 -73.05904 55 ft 1 kts 281°
2026-04-21 16:43 -36.77550 -73.05897 60 ft 1 kts 282°
2026-04-21 16:43 -36.77550 -73.05896 60 ft 0 kts 283°
2026-04-21 16:45 -36.77548 -73.05905 55 ft 3 kts 283°
2026-04-21 16:45 -36.77541 -73.05956 55 ft 9 kts 278°
2026-04-21 16:45 -36.77535 -73.06053 60 ft 14 kts 275°
2026-04-21 16:45 -36.77506 -73.06162 57 ft 11 kts 300°
2026-04-21 16:46 -36.77422 -73.06168 58 ft 16 kts 24°
2026-04-21 16:46 -36.77304 -73.06098 60 ft 22 kts 25°
2026-04-21 16:46 -36.77149 -73.06010 53 ft 27 kts 24°
2026-04-21 16:46 -36.76963 -73.05900 59 ft 32 kts 25°
2026-04-21 16:47 -36.76748 -73.05776 56 ft 36 kts 24°
2026-04-21 16:47 -36.76537 -73.05654 59 ft 26 kts 27°
2026-04-21 16:47 -36.76398 -73.05591 56 ft 21 kts 350°
2026-04-21 16:47 -36.76319 -73.05714 65 ft 18 kts 279°
2026-04-21 16:48 -36.76366 -73.05803 61 ft 11 kts 204°
2026-04-21 16:48 -36.76524 -73.05895 67 ft 55 kts 205°
2026-04-21 16:48 -36.77069 -73.06214 58 ft 115 kts 205°
2026-04-21 16:48 -36.77922 -73.06692 211 ft 141 kts 209°
2026-04-21 16:49 -36.78819 -73.07213 699 ft 144 kts 200°
2026-04-21 16:49 -36.79819 -73.07176 1282 ft 148 kts 154°
2026-04-21 16:49 -36.80520 -73.06276 1799 ft 151 kts 111°
2026-04-21 16:49 -36.80632 -73.04919 2190 ft 166 kts 86°
2026-04-21 16:50 -36.80570 -73.03410 2556 ft 183 kts 88°
2026-04-21 16:50 -36.80535 -73.01726 2909 ft 205 kts 89°
2026-04-21 16:50 -36.80515 -72.99856 3312 ft 229 kts 90°
2026-04-21 16:50 -36.80500 -72.97769 3897 ft 251 kts 90°
2026-04-21 16:51 -36.80482 -72.95529 4671 ft 264 kts 89°
2026-04-21 16:51 -36.80348 -72.93213 5645 ft 268 kts 74°
2026-04-21 16:51 -36.79487 -72.91194 6704 ft 268 kts 47°
2026-04-21 16:51 -36.78060 -72.89674 7576 ft 275 kts 38°
2026-04-21 16:52 -36.76518 -72.88204 8446 ft 282 kts 37°
2026-04-21 16:52 -36.74925 -72.86690 9355 ft 289 kts 38°
2026-04-21 16:52 -36.73323 -72.85149 10291 ft 295 kts 38°
2026-04-21 16:52 -36.71641 -72.83517 10760 ft 317 kts 38°
2026-04-21 16:53 -36.69864 -72.81780 11124 ft 339 kts 38°
2026-04-21 16:53 -36.67996 -72.79952 11823 ft 347 kts 38°
2026-04-21 16:53 -36.66077 -72.78077 12704 ft 350 kts 38°
2026-04-21 16:53 -36.64163 -72.76207 13563 ft 354 kts 38°
2026-04-21 16:54 -36.62238 -72.74328 14351 ft 358 kts 38°
2026-04-21 16:54 -36.60255 -72.72393 15113 ft 362 kts 38°
2026-04-21 16:54 -36.58282 -72.70469 15873 ft 366 kts 38°
2026-04-21 16:54 -36.56269 -72.68510 16637 ft 369 kts 38°
2026-04-21 16:55 -36.54253 -72.66549 17351 ft 373 kts 38°
2026-04-21 16:55 -36.52198 -72.64550 18074 ft 377 kts 38°
2026-04-21 16:55 -36.50127 -72.62537 18741 ft 381 kts 38°
2026-04-21 16:55 -36.48019 -72.60489 19355 ft 385 kts 38°
2026-04-21 16:56 -36.45896 -72.58429 19951 ft 389 kts 38°
2026-04-21 16:56 -36.43739 -72.56337 20557 ft 393 kts 38°
2026-04-21 16:56 -36.41568 -72.54233 21160 ft 397 kts 38°
2026-04-21 16:56 -36.39375 -72.52110 21750 ft 402 kts 38°
2026-04-21 16:57 -36.37190 -72.49997 22311 ft 405 kts 38°
2026-04-21 16:57 -36.34968 -72.47849 22902 ft 409 kts 38°
2026-04-21 16:57 -36.32711 -72.45667 23481 ft 413 kts 37°
2026-04-21 16:57 -36.30418 -72.43454 24011 ft 417 kts 37°
2026-04-21 16:58 -36.28152 -72.41268 24447 ft 421 kts 37°
2026-04-21 16:58 -36.25812 -72.39012 24915 ft 424 kts 37°
2026-04-21 16:58 -36.23473 -72.36759 25362 ft 428 kts 37°
2026-04-21 16:58 -36.21135 -72.34509 25799 ft 431 kts 36°
2026-04-21 16:59 -36.18741 -72.32206 26225 ft 435 kts 36°
2026-04-21 16:59 -36.16319 -72.29879 26668 ft 439 kts 36°
2026-04-21 16:59 -36.13896 -72.27553 27073 ft 442 kts 36°
2026-04-21 16:59 -36.11487 -72.25242 27478 ft 445 kts 35°
2026-04-21 17:00 -36.09033 -72.22890 27869 ft 448 kts 35°
2026-04-21 17:00 -36.06539 -72.20501 28249 ft 452 kts 34°
2026-04-21 17:00 -36.04861 -72.19027 28500 ft 452 kts 30°
2026-04-21 17:00 -36.01169 -72.16528 28998 ft 451 kts 20°
2026-04-21 17:01 -35.98327 -72.14938 29068 ft 441 kts 20°
2026-04-21 17:01 -35.95575 -72.13386 28725 ft 439 kts 20°
2026-04-21 17:01 -35.92782 -72.11808 28628 ft 441 kts 20°
2026-04-21 17:01 -35.89965 -72.10218 28755 ft 449 kts 20°
2026-04-21 17:02 -35.87113 -72.08607 29114 ft 451 kts 20°
2026-04-21 17:02 -35.84262 -72.06995 29517 ft 453 kts 20°
2026-04-21 17:02 -35.81373 -72.05364 29857 ft 456 kts 20°
2026-04-21 17:02 -35.78485 -72.03735 30203 ft 458 kts 19°
2026-04-21 17:03 -35.75596 -72.02106 30499 ft 461 kts 19°
2026-04-21 17:03 -35.72668 -72.00457 30811 ft 463 kts 19°
2026-04-21 17:03 -35.69732 -71.98805 31114 ft 465 kts 19°
2026-04-21 17:03 -35.66808 -71.97161 31436 ft 466 kts 19°
2026-04-21 17:04 -35.63830 -71.95487 31812 ft 466 kts 19°
2026-04-21 17:04 -35.60874 -71.93827 32191 ft 466 kts 19°
2026-04-21 17:04 -35.57952 -71.92189 32556 ft 467 kts 19°
2026-04-21 17:04 -35.55001 -71.90535 32912 ft 466 kts 19°
2026-04-21 17:05 -35.52042 -71.88877 33274 ft 466 kts 19°
2026-04-21 17:05 -35.49133 -71.87250 33599 ft 467 kts 18°
2026-04-21 17:05 -35.46115 -71.85562 33937 ft 467 kts 18°
2026-04-21 17:05 -35.43190 -71.83929 34137 ft 466 kts 18°
2026-04-21 17:06 -35.40253 -71.82287 34173 ft 465 kts 18°
2026-04-21 17:06 -35.34352 -71.78995 34173 ft 464 kts 18°
2026-04-21 17:07 -35.29464 -71.76276 34172 ft 463 kts 18°
2026-04-21 17:07 -35.22619 -71.72476 34170 ft 463 kts 17°
2026-04-21 17:08 -35.16743 -71.69218 34166 ft 462 kts 17°
2026-04-21 17:08 -35.10918 -71.65993 34168 ft 461 kts 17°
2026-04-21 17:09 -35.03161 -71.61705 34161 ft 460 kts 17°
2026-04-21 17:09 -34.96354 -71.57950 34152 ft 460 kts 17°
2026-04-21 17:10 -34.91514 -71.55284 34145 ft 460 kts 17°
2026-04-21 17:10 -34.85655 -71.52062 34142 ft 459 kts 16°
2026-04-21 17:11 -34.79821 -71.48858 34136 ft 459 kts 16°
2026-04-21 17:11 -34.74024 -71.45680 34141 ft 459 kts 16°
2026-04-21 17:12 -34.68178 -71.42481 34137 ft 460 kts 16°
2026-04-21 17:12 -34.62345 -71.39343 34081 ft 460 kts 14°
2026-04-21 17:13 -34.59362 -71.37878 33831 ft 458 kts 13°
2026-04-21 17:13 -34.56404 -71.36453 33560 ft 456 kts 13°
2026-04-21 17:13 -34.53455 -71.35028 33109 ft 456 kts 13°
2026-04-21 17:13 -34.50544 -71.33613 32436 ft 456 kts 13°
2026-04-21 17:14 -34.47582 -71.32165 31604 ft 457 kts 13°
2026-04-21 17:14 -34.44635 -71.30721 30889 ft 456 kts 13°
2026-04-21 17:14 -34.41705 -71.29278 30349 ft 450 kts 13°
2026-04-21 17:14 -34.38811 -71.27855 29628 ft 445 kts 13°
2026-04-21 17:15 -34.35968 -71.26456 29140 ft 436 kts 13°
2026-04-21 17:15 -34.33172 -71.25084 28581 ft 430 kts 13°
2026-04-21 17:15 -34.30410 -71.23732 28029 ft 424 kts 13°
2026-04-21 17:15 -34.27728 -71.22424 27479 ft 419 kts 13°
2026-04-21 17:16 -34.25012 -71.21098 26947 ft 414 kts 13°
2026-04-21 17:16 -34.22389 -71.19819 26401 ft 410 kts 13°
2026-04-21 17:16 -34.19748 -71.18531 25879 ft 406 kts 13°
2026-04-21 17:16 -34.17136 -71.17257 25335 ft 401 kts 13°
2026-04-21 17:17 -34.14547 -71.15996 24755 ft 399 kts 13°
2026-04-21 17:17 -34.11980 -71.14747 24277 ft 395 kts 13°
2026-04-21 17:17 -34.09469 -71.13526 23725 ft 393 kts 13°
2026-04-21 17:17 -34.06940 -71.12295 23188 ft 389 kts 14°
2026-04-21 17:18 -34.04431 -71.11075 22665 ft 385 kts 14°
2026-04-21 17:18 -34.01993 -71.09892 22153 ft 381 kts 14°
2026-04-21 17:18 -33.99537 -71.08698 21636 ft 376 kts 14°
2026-04-21 17:18 -33.97112 -71.07521 21121 ft 372 kts 14°
2026-04-21 17:19 -33.94711 -71.06357 20615 ft 368 kts 14°
2026-04-21 17:19 -33.92374 -71.05226 20118 ft 365 kts 14°
2026-04-21 17:19 -33.90017 -71.04086 19619 ft 363 kts 14°
2026-04-21 17:19 -33.87661 -71.02948 19084 ft 363 kts 14°
2026-04-21 17:20 -33.85345 -71.01827 18617 ft 360 kts 14°
2026-04-21 17:20 -33.83016 -71.00700 18015 ft 360 kts 15°
2026-04-21 17:20 -33.80763 -70.99610 17592 ft 354 kts 15°
2026-04-21 17:20 -33.78485 -70.98512 17097 ft 351 kts 15°
2026-04-21 17:21 -33.76254 -70.97435 16620 ft 346 kts 15°
2026-04-21 17:21 -33.74028 -70.96361 16128 ft 344 kts 15°
2026-04-21 17:21 -33.71811 -70.95292 15657 ft 340 kts 16°
2026-04-21 17:21 -33.69615 -70.94235 15179 ft 337 kts 16°
2026-04-21 17:22 -33.67439 -70.93186 14709 ft 334 kts 16°
2026-04-21 17:22 -33.65299 -70.92156 14247 ft 331 kts 17°
2026-04-21 17:22 -33.63176 -70.91135 13762 ft 329 kts 17°
2026-04-21 17:22 -33.61069 -70.90122 13306 ft 324 kts 17°
2026-04-21 17:23 -33.58964 -70.89109 12844 ft 320 kts 17°
2026-04-21 17:23 -33.56911 -70.88091 12397 ft 318 kts 20°
2026-04-21 17:23 -33.55003 -70.86817 11961 ft 318 kts 27°
2026-04-21 17:23 -33.53140 -70.85423 11500 ft 315 kts 27°
2026-04-21 17:24 -33.51296 -70.84059 11098 ft 312 kts 27°
2026-04-21 17:24 -33.49529 -70.82757 10618 ft 310 kts 27°
2026-04-21 17:24 -33.47677 -70.81399 10188 ft 316 kts 27°
2026-04-21 17:24 -33.45877 -70.80082 10039 ft 323 kts 27°
2026-04-21 17:25 -33.43976 -70.78684 9997 ft 319 kts 27°
2026-04-21 17:25 -33.42113 -70.77311 9913 ft 308 kts 27°
2026-04-21 17:25 -33.40337 -70.75999 9751 ft 290 kts 27°
2026-04-21 17:25 -33.38661 -70.74763 9400 ft 279 kts 27°
2026-04-21 17:26 -33.37012 -70.73557 8824 ft 275 kts 27°
2026-04-21 17:26 -33.35412 -70.72388 8502 ft 263 kts 27°
2026-04-21 17:26 -33.33891 -70.71272 8199 ft 252 kts 27°
2026-04-21 17:26 -33.32462 -70.70222 8136 ft 233 kts 27°
2026-04-21 17:27 -33.31041 -70.69395 8036 ft 219 kts 12°
2026-04-21 17:27 -33.29459 -70.69194 7918 ft 244 kts 354°
2026-04-21 17:27 -33.27716 -70.69442 7889 ft 256 kts 352°
2026-04-21 17:27 -33.25947 -70.69682 7853 ft 254 kts 353°
2026-04-21 17:28 -33.24207 -70.69900 7615 ft 247 kts 353°
2026-04-21 17:28 -33.22499 -70.70105 7107 ft 247 kts 353°
2026-04-21 17:28 -33.20781 -70.70311 6583 ft 248 kts 353°
2026-04-21 17:28 -33.19095 -70.70512 6161 ft 243 kts 353°
2026-04-21 17:29 -33.17455 -70.70768 5928 ft 229 kts 342°
2026-04-21 17:29 -33.16148 -70.71709 5594 ft 218 kts 311°
2026-04-21 17:29 -33.15449 -70.73256 5306 ft 217 kts 284°
2026-04-21 17:29 -33.15441 -70.75104 4832 ft 223 kts 253°
2026-04-21 17:30 -33.16177 -70.76651 4693 ft 209 kts 232°
2026-04-21 17:30 -33.17061 -70.77992 4496 ft 199 kts 234°
2026-04-21 17:30 -33.17904 -70.79352 4518 ft 208 kts 235°
2026-04-21 17:30 -33.18786 -70.80670 4507 ft 205 kts 220°
2026-04-21 17:31 -33.20085 -70.81335 4512 ft 209 kts 184°
2026-04-21 17:31 -33.21560 -70.81307 4367 ft 212 kts 177°
2026-04-21 17:31 -33.23028 -70.81185 4058 ft 214 kts 176°
2026-04-21 17:31 -33.24445 -70.81064 3977 ft 190 kts 176°
2026-04-21 17:32 -33.25276 -70.81000 3936 ft 173 kts 177°
2026-04-21 17:32 -33.26816 -70.80922 3608 ft 161 kts 179°
2026-04-21 17:32 -33.27885 -70.80863 3409 ft 150 kts 178°
2026-04-21 17:32 -33.28923 -70.80810 3228 ft 149 kts 179°
2026-04-21 17:33 -33.29961 -70.80754 3022 ft 147 kts 179°
2026-04-21 17:33 -33.30949 -70.80703 2832 ft 146 kts 178°
2026-04-21 17:33 -33.31964 -70.80650 2635 ft 146 kts 179°
2026-04-21 17:33 -33.32977 -70.80597 2438 ft 145 kts 179°
2026-04-21 17:34 -33.33990 -70.80544 2243 ft 144 kts 178°
2026-04-21 17:34 -33.34976 -70.80492 2047 ft 139 kts 178°
2026-04-21 17:34 -33.35926 -70.80437 1866 ft 138 kts 177°
2026-04-21 17:34 -33.36897 -70.80387 1685 ft 138 kts 177°
2026-04-21 17:35 -33.37838 -70.80333 1572 ft 125 kts 178°
2026-04-21 17:35 -33.38501 -70.80303 1573 ft 67 kts 177°
2026-04-21 17:35 -33.38836 -70.80287 1574 ft 42 kts 177°
2026-04-21 17:35 -33.39089 -70.80272 1573 ft 28 kts 177°
2026-04-21 17:36 -33.39272 -70.80230 1572 ft 26 kts 156°
2026-04-21 17:36 -33.39422 -70.80129 1568 ft 19 kts 148°
2026-04-21 17:36 -33.39489 -70.80061 1566 ft 2 kts 66°
2026-04-21 17:36 -33.39469 -70.80047 1565 ft 4 kts 14°
2026-04-21 17:37 -33.39429 -70.80050 1566 ft 7 kts 356°
2026-04-21 17:37 -33.39368 -70.80053 1566 ft 10 kts 357°
2026-04-21 17:37 -33.39315 -70.80054 1566 ft 12 kts
2026-04-21 17:37 -33.39310 -70.80025 1565 ft 4 kts 132°
2026-04-21 17:38 -33.39331 -70.79990 1565 ft 7 kts 115°
2026-04-21 17:38 -33.39347 -70.79925 1565 ft 9 kts 95°
2026-04-21 17:38 -33.39344 -70.79838 1564 ft 12 kts 93°
2026-04-21 17:38 -33.39402 -70.79797 1564 ft 11 kts 181°
2026-04-21 17:39 -33.39470 -70.79794 1564 ft 9 kts 177°
2026-04-21 17:39 -33.39522 -70.79762 1564 ft 9 kts 107°
2026-04-21 17:39 -33.39521 -70.79681 1564 ft 11 kts 88°
2026-04-21 17:39 -33.39517 -70.79578 1564 ft 14 kts 88°
2026-04-21 17:40 -33.39514 -70.79455 1564 ft 16 kts 88°
2026-04-21 17:40 -33.39507 -70.79312 1564 ft 18 kts 86°
2026-04-21 17:40 -33.39500 -70.79152 1564 ft 20 kts 88°
2026-04-21 17:40 -33.39499 -70.79049 1564 ft 3 kts 107°
2026-04-21 17:41 -33.39509 -70.79046 1564 ft 1 kts 181°
2026-04-21 17:41 -33.39525 -70.79049 1564 ft 4 kts 191°
2026-04-21 17:41 -33.39560 -70.79059 1564 ft 6 kts 193°
2026-04-21 17:41 -33.39571 -70.79062 1564 ft 2 kts 192°
2026-04-21 17:42 -33.39573 -70.79062 1564 ft 0 kts 192°